FW0177 Weather Reports


time (UTC)temp
F
wind
direction
speed
knots
gust
knots
rain 1hr
in
rain 24hr
in
rain mn
in
humidity
%
barometer
mb
20260906114602 73 0 0.0 0.0 0.00 0.00 0.00 97 1013.4
20260906113102 72 0 0.0 0.0 0.00 0.00 0.00 96 1013.5
20260906111558 73 0 0.0 0.0 0.00 0.00 0.00 97 1013.3
20260906104601 73 0 0.0 0.0 0.00 0.00 0.00 97 1013.1
20260906103100 73 0 0.0 0.0 0.00 0.00 0.00 97 1013.0
20260906101601 73 0 0.0 0.0 0.00 0.00 0.00 97 1012.8
20260906100100 73 0 0.0 0.0 0.00 0.00 0.00 96 1012.8
20260906094601 73 0 0.0 0.0 0.00 0.00 0.00 96 1012.7
20260906093103 73 0 0.0 0.0 0.00 0.00 0.00 97 1012.5
20260906091558 73 0 0.0 0.0 0.00 0.00 0.00 97 1012.3
20260906090103 73 0 0.0 0.0 0.00 0.00 0.00 97 1012.3
20260906084603 73 0 0.0 0.0 0.00 0.00 0.00 97 1012.3
20260906083103 73 0 0.0 0.0 0.00 0.00 0.00 96 1012.2
20260906081604 73 0 0.0 0.0 0.00 0.00 0.00 96 1012.0
20260906074600 73 0 0.0 0.0 0.00 0.00 0.00 96 1011.6
20260906073104 73 0 0.0 0.0 0.00 0.00 0.00 96 1011.7
20260906071601 73 0 0.0 0.0 0.00 0.00 0.00 96 1011.5
20260906064602 74 0 0.0 0.0 0.00 0.00 0.00 96 1011.8
20260906063101 74 0 0.0 0.0 0.00 0.00 0.00 96 1012.0
20260906061618 74 0 0.0 0.0 0.00 0.00 0.00 96 1011.9
20260906060121 74 0 0.0 0.0 0.00 0.00 0.00 95 1012.0
20260906054601 75 0 0.0 0.0 0.00 0.00 0.00 95 1012.2
20260906053102 75 0 0.0 0.0 0.00 0.00 0.00 95 1012.1
20260906051609 75 0 0.0 0.0 0.00 0.00 0.00 95 1012.3
20260906050104 75 0 0.0 0.0 0.00 0.00 0.00 95 1012.4
20260906044603 75 0 0.0 0.0 0.00 0.01 0.00 95 1012.4
20260906043102 76 0 0.0 0.0 0.00 0.01 0.00 95 1012.5
20260906041602 76 0 0.0 0.0 0.00 0.01 0.00 94 1012.8
20260906040106 76 0 0.0 0.0 0.00 0.01 0.00 94 1012.9
20260906034606 76 0 0.0 0.0 0.00 0.01 0.00 94 1013.2
20260906033059 77 0 0.0 0.0 0.00 0.01 0.00 94 1013.2
20260906031600 77 0 0.0 0.0 0.00 0.01 0.00 94 1013.2
20260906030109 77 0 0.0 0.0 0.00 0.01 0.00 94 1013.2
20260906024603 77 0 0.0 0.0 0.00 0.01 0.00 94 1013.3
20260906023107 77 0 0.0 0.0 0.00 0.01 0.00 93 1013.1
20260906021604 77 0 0.0 0.0 0.00 0.01 0.00 93 1012.6
20260906020101 77 0 0.0 0.0 0.00 0.01 0.00 92 1012.4
20260906014607 77 0 0.0 0.0 0.00 0.01 0.00 92 1012.0
20260906013102 78 0 0.0 0.0 0.00 0.01 0.00 91 1011.8
20260906011606 78 0 0.0 0.0 0.00 0.01 0.00 91 1011.8
20260906004604 79 0 0.0 0.0 0.00 0.01 0.00 89 1011.7
20260906003105 80 0 0.0 0.0 0.00 0.01 0.00 87 1011.5
20260906001602 80 0 0.0 0.0 0.00 0.01 0.00 86 1011.5
20260906000109 81 0 0.0 0.9 0.00 0.01 0.00 85 1011.5
20260905234609 82 0 0.0 0.9 0.00 0.04 0.00 84 1011.6
20260905233117 82 0 0.0 0.0 0.00 0.04 0.00 82 1011.6
20260905231604 83 0 0.0 0.0 0.00 0.04 0.00 81 1011.7
20260905230105 84 0 0.0 0.0 0.00 0.04 0.00 78 1011.7
20260905224601 85 0 0.0 0.0 0.00 0.06 0.00 76 1011.7
20260905223102 86 0 0.0 0.0 0.00 0.06 0.00 75 1011.8
20260905221605 86 0 0.0 0.9 0.00 0.06 0.00 71 1011.8
20260905220105 88 0 0.0 0.0 0.00 0.06 0.00 69 1012.1
20260905214604 89 0 0.0 3.5 0.00 0.06 0.00 67 1012.2
20260905213113 88 0 0.0 0.9 0.00 0.06 0.00 67 1012.3
20260905211611 87 0 0.0 0.9 0.00 0.06 0.00 69 1012.4
20260905210112 87 0 0.0 0.0 0.00 0.06 0.00 70 1012.5
20260905204603 87 0 0.0 0.9 0.00 0.06 0.00 70 1012.5
20260905203107 87 0 0.0 1.7 0.00 0.06 0.00 70 1012.6
20260905201600 87 0 0.0 5.2 0.00 0.06 0.00 69 1012.8
20260905200105 88 0 0.0 4.3 0.00 0.06 0.00 70 1012.9
20260905194603 88 0 0.0 3.5 0.00 0.06 0.00 71 1013.0
20260905193104 89 0 0.0 3.5 0.00 0.06 0.00 69 1013.4
20260905191602 88 181 0.0 5.2 0.00 0.06 0.00 71 1013.7
20260905190104 88 0 0.9 7.0 0.00 0.06 0.00 73 1014.1
20260905184611 86 0 0.0 4.3 0.00 0.06 0.00 78 1014.4
20260905183119 84 0 0.0 1.7 0.00 0.06 0.00 81 1014.5
20260905181602 83 0 0.0 1.7 0.00 0.06 0.00 84 1014.9
20260905180108 82 0 0.0 0.9 0.00 0.06 0.00 85 1015.1
20260905174601 81 0 0.0 4.3 0.00 0.06 0.00 88 1015.2
20260905173108 80 0 0.0 2.6 0.00 0.06 0.00 90 1015.3
20260905171603 80 0 0.0 1.7 0.00 0.06 0.00 91 1015.4
20260905170109 79 0 0.0 1.7 0.00 0.06 0.00 92 1015.7
20260905164604 79 0 0.0 0.9 0.00 0.06 0.00 92 1015.9
20260905163108 78 0 0.0 3.5 0.00 0.06 0.00 93 1015.8
20260905161605 78 0 0.0 0.0 0.00 0.06 0.00 94 1015.8
20260905160107 78 0 0.0 0.9 0.00 0.06 0.00 95 1015.8
20260905154601 78 0 0.0 0.9 0.00 0.06 0.00 94 1015.7
20260905153116 78 0 0.0 0.9 0.00 0.06 0.00 94 1015.8
20260905151611 78 0 0.0 1.7 0.00 0.06 0.00 94 1015.7
20260905150105 78 0 0.0 0.9 0.00 0.06 0.00 94 1015.6
20260905144603 78 0 0.0 0.0 0.00 0.06 0.00 94 1015.5
20260905143103 78 0 0.0 0.0 0.00 0.06 0.00 94 1015.2
20260905141626 78 0 0.0 0.0 0.00 0.06 0.00 96 1015.4
20260905140109 78 0 0.0 0.9 0.00 0.06 0.00 97 1015.4
20260905134604 77 0 0.0 0.0 0.00 0.06 0.00 98 1015.1
20260905133101 77 0 0.0 0.0 0.00 0.06 0.00 98 1015.0
20260905131618 76 0 0.0 0.0 0.00 0.06 0.00 98 1014.9
20260905130114 76 0 0.0 0.0 0.00 0.06 0.00 98 1014.9
20260905124602 75 0 0.0 0.0 0.00 0.06 0.00 98 1014.8
20260905123115 75 0 0.0 0.0 0.00 0.06 0.00 98 1014.8
20260905121603 75 0 0.0 0.0 0.00 0.06 0.00 98 1014.7